Weather History for New River MCAS, NC

Change the Weather History Date:

Thursday, September 27, 2012

  Actual Average Record
Temperature  
Mean Temperature 70 °F -  
Max Temperature 84 °F 78 °F 89 °F (1998)
Min Temperature 57 °F 60 °F 48 °F (2001)
Cooling Degree Days 4    
Growing Degree Days 20 (Base 50)    
Moisture  
Dew Point 61 °F    
Average Humidity 77    
Maximum Humidity 97    
Minimum Humidity 44    
Precipitation  
Precipitation 0.00 in - - ()
Sea Level Pressure  
Sea Level Pressure 30.17 in    
Wind  
Wind Speed 2 mph (SSW)    
Max Wind Speed 12 mph    
Max Gust Speed -    
Visibility 10 miles    
Events      
Averages and records for this station are not official NWS values.
T = Trace of Precipitation, MM = Missing Value Source: NWS Daily Summary

Daily Weather History Graph

Daily Weather History Graph

Search for Another Location

Airport:

Trip Planner

Search our weather history database for the weather conditions in past years. The results will help you decide how hot, cold, wet, or windy it might be!

Date:

Astronomy

Sep. 27, 2012 Rise Set
Actual Time 7:01 AM EDT 6:58 PM EDT
Civil Twilight 6:36 AM EDT 7:23 PM EDT
Nautical Twilight 6:07 AM EDT 7:53 PM EDT
Astronomical Twilight 5:37 AM EDT 8:22 PM EDT
Moon 5:26 PM EDT (9/27) 4:33 AM EDT (9/27)
Length of Visible Light 12h 47m
Length of Day
11h 56m
Waxing Gibbous, 94% of the Moon is Illuminated
Sep 27
Waxing Gibbous
Sep 29
Full
Oct 8
Last Quarter
Oct 15
New
Oct 21
First Quarter

Hourly Weather History & Observations

Time (EDT) Temp. Heat Index Dew Point Humidity Pressure Visibility Wind Dir Wind Speed Gust Speed Precip Events Conditions
12:56 AM 61.0 °F - 59.0 °F 93% 30.20 in 10.0 mi Calm Calm - N/A   Clear
1:56 AM 61.0 °F - 59.0 °F 93% 30.20 in 10.0 mi Calm Calm - N/A   Clear
2:56 AM 59.0 °F - 57.9 °F 96% 30.18 in 10.0 mi Calm Calm - N/A   Clear
3:56 AM 57.9 °F - 55.9 °F 93% 30.18 in 8.0 mi Calm Calm - N/A   Clear
4:04 AM - - - N/A% - - North - - N/A   Unknown
4:56 AM 57.9 °F - 57.0 °F 97% 30.18 in 9.0 mi Calm Calm - N/A   Clear
5:56 AM 57.9 °F - 55.9 °F 93% 30.20 in 9.0 mi Calm Calm - N/A   Clear
6:56 AM 57.9 °F - 55.9 °F 93% 30.21 in 8.0 mi Calm Calm - N/A   Clear
7:56 AM 61.0 °F - 59.0 °F 93% 30.21 in 10.0 mi Calm Calm - N/A   Clear
8:56 AM 68.0 °F - 62.1 °F 81% 30.22 in 10.0 mi Calm Calm - N/A   Clear
9:56 AM 73.9 °F - 63.0 °F 68% 30.22 in 7.0 mi NNW 3.5 mph - N/A   Partly Cloudy
10:56 AM 78.1 °F - 63.0 °F 60% 30.23 in 7.0 mi NNW 5.8 mph - N/A   Partly Cloudy
11:56 AM 80.1 °F 81.5 °F 63.0 °F 56% 30.22 in 10.0 mi NW 6.9 mph - N/A   Partly Cloudy
12:56 PM 82.0 °F 83.1 °F 63.0 °F 52% 30.19 in 9.0 mi NW 5.8 mph - N/A   Partly Cloudy
1:56 PM 82.9 °F 83.7 °F 62.1 °F 49% 30.17 in 10.0 mi Calm Calm - N/A   Partly Cloudy
2:56 PM 82.9 °F 82.8 °F 59.0 °F 44% 30.14 in 10.0 mi SE 4.6 mph - N/A   Scattered Clouds
3:56 PM 82.9 °F 82.8 °F 59.0 °F 44% 30.13 in 10.0 mi East 5.8 mph - N/A   Clear
4:56 PM 80.1 °F 81.7 °F 64.0 °F 58% 30.13 in 10.0 mi SE 11.5 mph - N/A   Clear
5:56 PM 77.0 °F - 63.0 °F 62% 30.12 in 10.0 mi South 6.9 mph - N/A   Clear
6:56 PM 73.0 °F - 64.0 °F 73% 30.13 in 10.0 mi South 4.6 mph - N/A   Clear
7:56 PM 71.1 °F - 64.0 °F 78% 30.14 in 10.0 mi Calm Calm - N/A   Clear
8:56 PM 66.9 °F - 64.0 °F 90% 30.14 in 10.0 mi Calm Calm - N/A   Clear
9:56 PM 64.0 °F - 63.0 °F 96% 30.15 in 10.0 mi Calm Calm - N/A   Clear
10:56 PM 64.0 °F - 63.0 °F 96% 30.15 in 10.0 mi Calm Calm - N/A   Clear
11:56 PM 63.0 °F - 61.0 °F 93% 30.14 in 10.0 mi Calm Calm - N/A   Clear